Temperature
17 17 17 16 16 15 15 15 14 16 16 17 16 15 15 15 14 13 12 11 11 10 9 8 8 7 7 7 6 6 6 6 5 5 5 4 4 4 3 3 3 2 2 2
15 16 16 15 16 15 15 15 15 15 15 17 17 17 16 15 14 13 11 11 10 9 8 8 7 7 6 6 6 6 5 5 5 4 4 4 3 3 3 2 2 2 1 1
14 15 14 13 14 15 15 15 15 14 15 16 15 15 15 14 13 12 11 10 9 8 8 7 7 6 6 6 5 5 5 5 4 4 3 3 3 2 2 1 1 1 0 -0
12 13 11 14 16 16 15 15 15 15 15 15 14 14 14 13 13 11 10 9 8 8 7 7 6 6 6 5 5 5 4 4 4 3 3 2 2 2 1 1 0 -0 -0 -1
11 11 12 15 15 15 14 14 15 15 14 13 12 11 11 11 11 10 9 8 8 7 7 6 6 5 5 5 4 4 4 3 3 2 2 1 1 1 0 -0 -0 -1 -1 -2
10 10 10 14 13 14 14 12 14 14 13 11 10 8 9 10 10 9 8 7 7 6 6 6 5 5 4 4 4 4 3 3 2 2 1 1 0 0 -0 -1 -1 -2 -2 -2
10 9 11 13 12 13 12 12 13 13 13 11 9 9 10 9 9 8 7 7 6 6 5 5 4 4 4 4 3 3 2 2 2 1 1 0 -0 -1 -1 -2 -2 -2 -3 -3
10 9 10 11 11 11 12 12 12 12 12 11 10 9 9 8 7 7 6 6 5 5 5 4 4 4 3 3 2 2 2 1 1 1 0 -0 -1 -1 -1 -2 -3 -3 -3 -3
11 11 12 12 12 12 12 12 11 11 11 10 9 8 8 7 6 6 6 5 5 5 4 4 4 3 3 2 2 1 1 1 1 0 -0 -1 -1 -2 -2 -3 -3 -3 -4 -4
12 12 11 12 12 12 11 11 11 10 10 10 9 8 7 6 6 5 5 5 4 4 4 4 3 3 2 2 1 1 0 0 -0 -1 -1 -1 -2 -2 -3 -3 -4 -4 -5 -5
11 12 11 11 11 11 10 10 10 9 9 8 8 7 6 6 5 5 4 4 4 4 3 3 3 2 2 1 1 0 -0 -0 -1 -1 -2 -2 -2 -3 -3 -4 -4 -5 -5 -5
10 11 10 11 11 10 10 9 9 8 8 7 7 6 6 5 5 4 4 4 3 3 3 2 2 2 1 1 0 -1 -1 -1 -1 -2 -2 -3 -3 -3 -3 -4 -5 -5 -5 -6
11 11 11 10 10 10 9 8 8 8 7 7 6 6 5 5 4 4 3 3 3 2 2 2 1 1 1 0 -0 -1 -2 -2 -2 -3 -3 -3 -4 -4 -5 -4 -5 -5 -6 -6
10 10 9 9 9 8 8 7 7 6 6 5 5 5 4 4 4 3 3 3 2 2 2 1 1 1 0 -0 -1 -2 -2 -2 -3 -3 -4 -4 -5 -5 -6 -6 -6 -6 -6 -6
8 8 8 7 7 7 6 6 6 5 5 4 4 4 3 3 3 3 2 2 2 1 1 1 0 0 -0 -1 -2 -2 -3 -3 -3 -4 -4 -5 -5 -6 -6 -7 -7 -7 -7 -7
6 6 6 6 6 5 5 5 4 4 4 3 3 3 3 2 2 2 2 1 1 1 1 0 -0 -0 -1 -2 -2 -3 -3 -4 -4 -5 -5 -6 -6 -6 -7 -7 -7 -7 -8 -8
5 4 4 4 4 4 4 4 3 3 3 3 2 2 2 2 2 2 1 1 0 0 0 -0 -1 -1 -2 -2 -3 -4 -4 -4 -5 -5 -6 -6 -7 -7 -7 -7 -8 -8 -8 -8
4 4 4 4 4 3 3 3 3 2 2 2 2 2 2 1 1 1 0 -0 -0 -0 -0 -1 -2 -2 -3 -3 -4 -4 -5 -5 -6 -6 -6 -7 -7 -7 -8 -8 -8 -8 -8 -8
3 3 3 3 3 3 2 2 2 2 2 2 1 1 1 1 0 -0 -0 -1 -1 -1 -1 -2 -2 -3 -3 -4 -4 -5 -5 -6 -6 -7 -7 -7 -8 -8 -8 -8 -8 -9 -9 -9
2 2 2 2 2 2 2 2 1 1 1 1 0 0 0 -0 -0 -1 -1 -1 -1 -2 -2 -3 -3 -4 -4 -5 -5 -6 -6 -7 -7 -7 -7 -8 -8 -8 -8 -8 -9 -9 -9 -9
1 1 1 1 1 1 1 1 1 1 0 -0 -0 -1 -1 -1 -1 -1 -2 -2 -1 -2 -3 -4 -4 -4 -5 -6 -6 -7 -7 -7 -7 -8 -8 -8 -8 -8 -9 -9 -9 -9 -10 -10
1 1 1 1 1 1 0 0 -0 -0 -0 -1 -1 -1 -1 -1 -2 -2 -2 -3 -3 -4 -4 -5 -5 -5 -6 -7 -7 -7 -8 -8 -8 -8 -8 -9 -9 -9 -9 -10 -10 -10 -10 -10
0 0 0 0 -0 -0 -0 -1 -1 -1 -1 -1 -1 -2 -2 -2 -3 -3 -4 -3 -4 -5 -5 -6 -6 -6 -7 -7 -8 -8 -8 -9 -9 -9 -9 -9 -9 -10 -10 -10 -10 -11 -11 -11
-0 -0 -1 -1 -1 -1 -1 -1 -1 -2 -2 -2 -2 -3 -3 -4 -4 -4 -5 -5 -6 -6 -6 -6 -7 -7 -8 -8 -8 -9 -9 -9 -9 -10 -10 -10 -10 -10 -10 -11 -11 -11 -11 -11
-1 -1 -1 -1 -2 -2 -2 -2 -2 -2 -3 -3 -3 -4 -4 -5 -5 -5 -6 -6 -6 -7 -7 -7 -8 -8 -9 -9 -9 -9 -10 -10 -10 -10 -10 -10 -11 -11 -11 -11 -11 -11 -11 -12
-2 -2 -2 -2 -2 -3 -3 -3 -3 -4 -4 -4 -5 -5 -5 -6 -6 -7 -7 -7 -8 -8 -8 -9 -9 -9 -9 -10 -10 -10 -10 -10 -11 -11 -11 -11 -11 -11 -12 -12 -12 -12 -12 -12
-2 -2 -3 -3 -3 -3 -4 -4 -5 -5 -5 -6 -6 -6 -6 -7 -7 -8 -8 -8 -9 -9 -9 -10 -10 -10 -10 -10 -11 -11 -11 -11 -11 -11 -11 -12 -12 -12 -12 -12 -12 -12 -12 -12
Wind_Speed
6 1 4 5 8 11 12 11 8 9 10 7 6 8 9 10 10 10 10 9 9 8 7 7 6 5 4 3 2 1 1 3 4 5 6 7 7 8 8 9 10 10 11 11
5 3 3 6 8 9 12 12 13 13 14 8 0 4 7 10 11 11 10 10 9 8 7 6 5 4 3 2 1 0 2 4 5 6 7 7 8 9 9 10 10 11 11 11
4 4 1 7 11 13 11 10 10 13 10 2 2 4 5 6 8 10 10 9 9 8 6 5 5 4 3 1 0 1 4 6 6 7 8 8 9 9 10 10 10 11 10 11
3 3 8 8 2 6 10 11 11 9 5 3 4 4 3 4 7 9 9 9 8 7 6 5 4 3 2 1 2 4 6 7 7 7 8 9 9 10 10 9 10 10 11 11
4 5 8 7 5 5 5 7 7 7 4 6 8 6 2 3 6 8 8 8 7 7 6 4 4 3 2 2 4 5 7 8 8 8 8 9 10 10 10 9 10 10 10 11
5 5 7 3 2 3 3 6 4 4 5 8 8 4 4 7 9 9 9 8 7 6 4 3 3 2 2 4 5 7 8 7 7 7 8 10 10 11 9 9 11 11 11 11
7 7 8 3 5 5 5 6 1 4 6 9 7 5 5 9 9 9 9 8 6 5 3 3 2 1 3 6 7 8 7 7 8 8 9 10 10 9 10 10 10 11 12 11
7 7 9 7 8 8 5 3 3 4 5 7 7 7 8 9 8 8 7 6 5 3 2 2 2 3 5 7 8 7 7 8 9 9 9 9 10 10 10 10 11 11 11 12
9 9 2 8 6 4 4 4 4 4 5 8 9 7 8 8 8 7 6 5 4 3 2 3 3 4 6 7 7 7 8 9 9 10 9 9 10 10 9 9 9 10 10 11
4 5 6 6 4 4 4 4 5 5 6 8 8 8 8 7 6 6 5 4 3 2 3 4 5 5 7 8 7 8 9 9 9 9 9 9 8 8 8 8 9 10 11 12
5 3 5 6 7 6 6 5 5 5 6 8 9 8 8 6 6 5 4 3 3 3 4 6 6 7 8 8 7 8 9 9 9 9 9 9 9 8 10 9 11 13 11 11
5 4 5 5 7 8 8 7 7 7 6 6 7 8 7 6 5 4 3 2 2 4 6 7 7 8 8 8 8 9 9 9 8 8 8 8 10 11 15 17 23 25 24 23
2 3 4 5 5 7 7 7 7 7 8 7 6 6 6 4 3 3 3 3 4 6 7 7 8 9 9 8 8 9 9 9 8 8 9 9 9 11 14 15 20 22 24 26
4 4 3 3 4 5 6 7 7 7 6 6 6 6 5 3 2 3 4 5 5 6 7 8 9 10 9 8 8 9 9 11 11 9 8 9 10 10 11 14 15 12 15 23
4 3 3 5 6 6 7 7 7 6 6 5 5 5 4 3 3 4 4 4 5 7 8 8 9 10 9 8 9 9 9 8 9 9 9 9 10 11 12 13 14 14 12 14
5 4 5 6 7 7 7 7 6 6 5 5 4 3 3 2 3 4 5 6 6 8 9 9 10 11 9 9 9 8 9 15 15 11 10 10 10 11 12 13 13 13 14 13
6 5 6 7 7 7 6 5 5 5 4 4 3 2 2 2 4 6 6 6 7 8 9 10 11 11 9 9 9 8 8 11 18 14 10 11 11 12 12 13 13 14 13 16
4 4 5 6 6 6 6 5 5 5 3 3 2 1 3 4 6 7 7 7 8 10 10 10 11 10 9 8 8 8 8 9 9 11 11 11 13 12 13 13 13 15 14 15
6 6 7 7 7 6 6 5 4 3 2 2 1 3 4 5 6 7 8 8 10 12 11 10 14 12 10 10 12 8 9 11 12 12 11 16 17 13 12 12 13 13 14 14
8 8 9 8 7 6 5 4 3 1 1 0 2 4 6 7 7 8 8 10 10 10 10 12 11 9 9 10 14 8 9 11 13 13 13 13 13 13 12 13 13 13 13 13
8 8 7 6 5 4 3 2 1 1 1 2 4 6 8 9 8 8 9 12 11 10 11 15 10 8 8 11 15 9 10 12 13 13 13 13 13 13 13 13 13 13 13 13
6 6 6 5 4 3 2 2 1 2 4 5 6 7 8 9 10 10 10 11 12 14 11 8 7 12 16 19 10 10 11 13 13 13 12 12 12 13 13 13 13 14 13 13
5 5 4 4 2 2 2 3 3 4 5 7 7 8 9 9 8 9 12 9 8 14 11 8 14 22 25 15 10 10 12 13 13 12 12 12 12 12 13 14 13 13 12 13
5 4 2 2 1 2 4 5 5 5 6 7 8 9 9 9 9 8 9 14 17 19 12 15 23 25 24 11 10 10 11 11 12 12 12 12 11 12 12 13 13 12 13 14
2 1 0 1 3 4 5 6 6 7 7 7 8 9 8 7 8 9 8 10 17 19 12 16 24 25 16 10 10 11 11 12 13 13 12 12 12 12 13 13 13 13 13 13
0 1 2 3 4 4 4 5 5 6 6 8 7 7 6 6 8 9 9 11 13 18 14 11 11 15 10 10 11 11 11 13 14 12 11 12 13 13 13 13 14 14 13 13
2 2 3 4 4 4 4 5 6 7 7 8 10 8 8 8 9 10 11 11 11 11 10 10 10 10 10 11 11 11 11 11 11 11 11 12 12 12 13 14 14 13 13 14
Wind_Direction
276 46 156 205 206 203 214 227 237 251 263 258 209 192 179 166 157 153 154 153 151 151 146 141 140 135 126 121 116 109 293 288 285 289 293 294 293 291 289 287 287 285 284 283
264 245 236 250 242 227 223 232 244 262 270 283 254 146 157 163 162 162 161 158 152 148 144 145 141 132 125 132 128 79 287 284 288 291 291 288 286 285 286 285 284 284 283 284
245 232 263 251 229 230 231 224 224 244 255 262 144 149 159 163 162 161 158 151 149 149 145 139 131 128 137 144 122 285 279 279 282 282 282 281 283 286 285 286 285 285 285 286
216 194 233 236 205 217 231 241 231 234 224 172 146 116 89 126 152 150 144 143 143 138 131 124 120 125 130 150 268 271 272 274 274 273 276 279 281 283 284 283 285 287 289 288
180 230 261 247 206 187 208 256 237 232 204 128 102 78 55 106 124 134 131 132 131 128 128 130 139 151 167 239 261 267 268 269 269 271 277 281 283 283 284 286 288 287 287 288
185 211 236 236 128 114 128 264 252 191 158 136 123 158 214 140 112 111 114 115 118 120 125 144 168 164 207 256 265 268 268 270 276 279 280 281 281 282 284 284 285 287 287 286
208 223 249 193 154 131 175 238 99 124 141 149 169 182 143 125 115 115 116 118 123 132 148 176 180 188 250 264 266 268 274 281 281 279 277 278 279 280 281 282 283 285 287 287
196 222 241 162 156 187 201 142 130 138 148 147 130 112 118 121 121 123 126 132 140 149 177 195 205 235 258 265 268 275 280 280 279 278 280 284 281 281 280 283 286 287 289 290
196 211 200 162 175 156 129 144 148 152 146 140 138 141 137 135 135 138 144 151 154 168 210 240 244 248 264 272 278 281 281 279 279 280 279 279 280 283 286 284 284 287 287 290
223 197 168 171 150 145 151 153 145 146 147 146 148 148 148 148 149 152 156 160 167 190 238 261 267 268 266 273 277 278 280 281 281 283 284 281 280 280 282 282 284 286 288 291
235 204 150 193 199 182 167 153 141 136 143 149 146 149 153 155 157 159 162 169 182 216 248 264 273 275 274 276 279 279 279 280 282 281 282 284 280 277 281 273 277 287 287 286
213 195 184 194 185 173 166 169 162 150 141 134 141 147 148 152 154 157 167 181 215 241 254 265 271 275 277 276 275 277 281 281 281 282 282 282 286 288 280 280 289 290 291 292
132 78 95 102 129 149 159 160 154 151 149 143 140 142 143 145 149 157 186 218 238 251 260 268 274 277 278 278 277 276 276 280 282 281 283 283 284 289 294 294 289 290 293 295
117 112 127 147 147 138 137 136 130 128 131 135 134 130 131 139 159 195 226 241 251 261 268 271 274 276 279 282 283 279 278 282 286 281 279 280 283 285 288 293 298 293 291 294
163 153 143 130 127 127 125 127 131 136 135 131 130 135 146 171 210 235 249 258 265 269 271 274 277 280 285 285 282 279 281 281 280 279 278 281 284 286 287 287 289 293 295 295
141 124 132 145 149 145 144 148 152 154 148 142 142 153 167 197 237 257 261 260 265 270 273 276 278 280 282 281 279 279 278 283 288 287 284 284 285 287 288 288 289 291 293 296
153 172 176 168 160 154 152 147 144 142 137 140 149 154 185 244 263 266 267 268 268 269 272 274 276 278 277 275 275 277 277 283 289 289 284 285 286 286 287 287 288 290 290 293
165 147 144 144 143 140 133 121 114 118 130 140 143 195 242 254 264 271 277 283 283 280 276 272 273 276 274 274 276 276 278 280 281 282 284 285 287 285 285 286 287 290 292 295
107 101 97 98 106 113 112 109 109 116 131 157 207 250 263 268 271 275 279 281 281 284 282 273 281 282 277 276 285 278 278 282 284 284 284 287 290 287 286 286 287 288 291 294
94 93 92 89 87 96 103 106 108 114 121 150 276 278 278 276 276 279 280 276 270 268 273 280 283 277 275 278 287 279 278 281 284 286 286 285 287 288 287 287 287 289 290 291
97 97 96 94 90 87 88 83 74 14 317 289 271 269 272 277 278 278 280 284 280 273 278 286 286 279 283 287 291 284 283 285 286 286 286 288 289 289 289 289 290 291 292 292
95 93 89 84 80 69 51 33 350 297 288 281 274 271 275 279 279 276 267 270 281 286 288 280 278 287 295 296 290 286 287 287 288 287 287 288 289 290 291 292 292 293 292 291
85 83 78 70 58 14 333 310 285 273 271 271 273 275 275 276 277 281 287 281 280 291 295 283 291 297 299 299 289 287 288 289 289 289 288 287 288 290 291 291 291 292 292 291
76 70 62 39 8 318 293 284 276 269 266 269 268 266 270 279 280 268 269 288 297 297 294 293 298 299 302 297 288 286 285 286 286 287 287 287 288 288 289 290 290 291 291 291
81 68 326 294 286 273 272 281 287 282 277 274 272 269 265 262 273 285 286 290 297 300 295 296 299 300 299 289 286 285 286 285 287 289 287 290 291 292 291 290 290 291 291 291
353 283 272 266 263 269 276 280 280 280 285 288 287 281 279 279 282 288 290 290 290 296 298 294 293 295 291 288 287 288 288 291 292 290 287 289 290 290 291 291 290 291 291 290
287 279 280 285 281 271 271 275 280 285 285 288 292 292 291 292 292 291 292 294 295 294 295 294 293 293 294 293 292 291 290 289 288 286 287 288 289 289 291 290 291 292 292 290
Height
1468 1467 1470 1472 1475 1477 1481 1481 1485 1478 1473 1468 1468 1469 1471 1474 1477 1481 1485 1488 1491 1494 1496 1498 1500 1501 1501 1501 1501 1500 1499 1498 1496 1494 1492 1489 1486 1483 1480 1476 1473 1469 1465 1461
1470 1468 1469 1472 1471 1472 1474 1474 1474 1472 1470 1463 1463 1465 1468 1471 1474 1478 1481 1485 1488 1491 1493 1495 1496 1497 1498 1497 1497 1496 1495 1493 1491 1489 1486 1483 1480 1477 1473 1469 1466 1462 1457 1453
1476 1469 1472 1477 1468 1467 1467 1464 1466 1470 1465 1462 1463 1464 1466 1469 1471 1474 1478 1482 1485 1488 1490 1492 1493 1493 1494 1493 1493 1492 1490 1488 1486 1483 1480 1477 1474 1470 1466 1462 1458 1454 1450 1446
1476 1476 1488 1466 1454 1454 1457 1456 1457 1457 1457 1459 1461 1464 1466 1467 1470 1472 1475 1479 1482 1485 1487 1488 1489 1490 1490 1489 1489 1487 1485 1483 1481 1478 1474 1471 1467 1464 1460 1456 1451 1447 1443 1438
1479 1479 1470 1457 1453 1453 1456 1456 1451 1452 1454 1457 1460 1463 1466 1467 1468 1470 1473 1476 1479 1482 1484 1485 1486 1486 1486 1485 1484 1482 1480 1478 1475 1472 1468 1465 1461 1457 1453 1449 1444 1440 1435 1430
1475 1479 1477 1456 1452 1449 1454 1459 1449 1449 1452 1456 1460 1468 1466 1465 1467 1469 1472 1474 1477 1479 1481 1482 1482 1482 1481 1480 1479 1477 1475 1472 1470 1466 1463 1458 1454 1450 1446 1442 1436 1432 1427 1423
1471 1473 1463 1450 1450 1452 1463 1458 1450 1449 1451 1455 1458 1461 1462 1463 1465 1468 1470 1472 1474 1476 1478 1478 1478 1478 1477 1476 1474 1472 1469 1467 1464 1460 1456 1452 1447 1443 1439 1434 1429 1424 1419 1414
1465 1469 1463 1448 1450 1452 1451 1449 1449 1450 1452 1454 1457 1459 1460 1462 1464 1466 1468 1470 1472 1474 1474 1475 1474 1474 1472 1470 1469 1466 1463 1460 1457 1453 1449 1445 1441 1436 1432 1427 1421 1416 1410 1405
1448 1449 1442 1442 1443 1444 1445 1447 1448 1449 1451 1453 1455 1457 1459 1461 1463 1465 1467 1468 1470 1470 1471 1471 1470 1469 1467 1465 1463 1460 1457 1453 1450 1446 1442 1438 1434 1429 1424 1419 1414 1408 1403 1397
1439 1438 1438 1439 1441 1442 1444 1445 1446 1447 1449 1451 1453 1455 1457 1459 1461 1463 1465 1466 1467 1467 1467 1467 1466 1464 1462 1460 1457 1454 1450 1446 1443 1438 1434 1430 1426 1422 1417 1412 1407 1401 1396 1390
1436 1435 1436 1437 1438 1440 1441 1443 1444 1446 1447 1449 1451 1453 1455 1457 1459 1461 1462 1463 1463 1463 1463 1462 1461 1459 1457 1454 1451 1447 1443 1439 1435 1431 1426 1422 1418 1414 1409 1404 1401 1395 1389 1384
1433 1431 1433 1434 1435 1437 1438 1440 1441 1443 1445 1447 1449 1451 1453 1455 1456 1458 1459 1459 1459 1459 1458 1457 1455 1453 1450 1448 1444 1440 1435 1431 1427 1423 1418 1414 1408 1403 1399 1396 1392 1387 1382 1378
1427 1428 1430 1431 1432 1434 1435 1437 1439 1441 1443 1445 1447 1449 1450 1452 1453 1455 1455 1455 1455 1454 1453 1451 1449 1446 1444 1441 1437 1433 1428 1424 1419 1415 1410 1405 1400 1395 1388 1383 1381 1377 1373 1368
1424 1426 1428 1429 1431 1432 1434 1435 1437 1439 1441 1443 1445 1446 1448 1449 1450 1451 1451 1451 1450 1449 1447 1445 1442 1440 1437 1433 1429 1425 1421 1416 1412 1407 1402 1398 1393 1388 1382 1376 1369 1364 1362 1359
1422 1423 1425 1427 1428 1430 1432 1433 1435 1437 1439 1441 1443 1444 1445 1446 1447 1447 1447 1447 1445 1443 1441 1439 1435 1432 1430 1426 1421 1417 1412 1408 1404 1399 1394 1390 1385 1380 1375 1369 1363 1357 1352 1348
1419 1421 1423 1424 1426 1428 1430 1431 1433 1435 1437 1439 1440 1442 1443 1443 1443 1443 1442 1441 1439 1437 1435 1432 1428 1425 1422 1417 1413 1408 1404 1400 1395 1390 1386 1381 1376 1372 1366 1361 1356 1350 1345 1340
1417 1418 1420 1422 1424 1426 1428 1430 1432 1433 1435 1437 1438 1439 1439 1439 1439 1438 1437 1436 1433 1430 1428 1424 1420 1417 1413 1409 1405 1400 1395 1391 1387 1382 1377 1373 1368 1363 1359 1354 1348 1343 1338 1334
1415 1417 1418 1420 1422 1425 1427 1429 1431 1432 1433 1435 1435 1436 1436 1435 1434 1432 1431 1429 1426 1422 1420 1417 1412 1408 1404 1401 1397 1392 1387 1382 1378 1373 1369 1364 1360 1355 1350 1346 1340 1335 1329 1325
1413 1415 1417 1420 1422 1424 1426 1427 1429 1430 1431 1432 1432 1432 1431 1430 1429 1426 1424 1421 1418 1414 1410 1408 1404 1400 1396 1392 1388 1383 1378 1374 1369 1364 1360 1355 1351 1346 1342 1337 1332 1327 1322 1317
1412 1415 1417 1419 1421 1423 1425 1426 1427 1428 1429 1429 1428 1427 1426 1424 1423 1420 1417 1413 1410 1407 1402 1399 1395 1391 1387 1383 1379 1374 1370 1365 1360 1356 1351 1347 1342 1337 1333 1328 1323 1319 1314 1309
1413 1415 1417 1419 1421 1423 1424 1425 1425 1425 1425 1425 1424 1422 1420 1418 1416 1413 1409 1404 1401 1399 1395 1391 1387 1383 1379 1374 1370 1365 1361 1357 1352 1347 1343 1338 1333 1328 1324 1319 1315 1310 1305 1301
1414 1416 1418 1419 1421 1422 1422 1423 1423 1422 1421 1420 1419 1417 1414 1411 1408 1405 1401 1398 1393 1390 1386 1382 1378 1374 1370 1366 1361 1357 1352 1348 1343 1338 1334 1329 1325 1320 1315 1311 1306 1302 1297 1293
1415 1417 1418 1419 1419 1420 1420 1420 1419 1418 1416 1415 1413 1410 1408 1404 1401 1397 1392 1389 1386 1382 1378 1373 1369 1365 1361 1357 1352 1348 1343 1339 1334 1330 1325 1321 1316 1312 1307 1302 1298 1293 1289 1284
1415 1416 1417 1417 1417 1417 1416 1416 1414 1413 1411 1409 1407 1404 1401 1397 1393 1390 1386 1381 1378 1374 1369 1364 1361 1356 1352 1347 1343 1338 1334 1330 1325 1321 1316 1312 1308 1303 1298 1294 1289 1284 1280 1276
1414 1415 1415 1415 1414 1413 1412 1411 1409 1407 1405 1402 1399 1397 1394 1390 1386 1381 1377 1373 1369 1364 1359 1355 1351 1347 1343 1338 1334 1329 1325 1321 1317 1312 1308 1303 1299 1294 1290 1285 1281 1276 1271 1267
1412 1412 1412 1412 1411 1409 1408 1405 1403 1401 1398 1394 1391 1389 1386 1382 1378 1374 1369 1364 1360 1355 1351 1346 1342 1338 1334 1329 1325 1320 1316 1312 1308 1303 1299 1294 1290 1285 1281 1276 1272 1267 1263 1258
1410 1410 1409 1408 1406 1405 1403 1400 1398 1395 1392 1388 1384 1380 1377 1373 1369 1365 1360 1356 1351 1346 1342 1338 1333 1329 1325 1320 1316 1311 1307 1303 1299 1294 1290 1286 1281 1276 1272 1267 1263 1258 1254 1250